Weather History for KCNY - May, 2012

Change the Weather History Date:

Thursday, May 31, 2012

  Actual Average Record
Temperature  
Mean Temperature 70 °F 68 °F  
Max Temperature 90 °F 85 °F 102 °F (2002)
Min Temperature 50 °F 51 °F 39 °F (1988)
Degree Days  
Heating Degree Days 0 2  
Month to date heating degree days 57 135  
Since 1 July heating degree days 5097 5560  
Cooling Degree Days 5 4  
Month to date cooling degree days 66 61  
Year to date cooling degree days 84 64  
Growing Degree Days 20 (Base 50)    
Moisture  
Dew Point 24 °F    
Average Humidity 19    
Maximum Humidity 28    
Minimum Humidity 10    
Precipitation  
Precipitation 0.00 in 0.02 in 1.30 in (1993)
Month to date precipitation T 0.58  
Year to date precipitation 0.65 3.20  
Sea Level Pressure  
Sea Level Pressure 29.84 in    
Wind  
Wind Speed 6 mph (NW)    
Max Wind Speed 18 mph    
Max Gust Speed 23 mph    
Visibility 10 miles    
Events      
T = Trace of Precipitation, MM = Missing Value Source: NWS Daily Summary

Daily Weather History Graph

Daily Weather History Graph

Search for Another Location

Airport or City:

Trip Planner

Search our weather history database for the weather conditions in past years. The results will help you decide how hot, cold, wet, or windy it might be!

Date:

Astronomy

May. 31, 2012 Rise Set
Actual Time 5:56 AM MDT 8:37 PM MDT
Civil Twilight 5:24 AM MDT 9:09 PM MDT
Nautical Twilight 4:45 AM MDT 9:48 PM MDT
Astronomical Twilight 4:01 AM MDT 10:32 PM MDT
Moon 4:33 PM MDT (5/31) 2:54 AM MDT (5/31)
Length of Visible Light 15h 44m
Length of Day
14h 41m
Waxing Gibbous, 81% of the Moon is Illuminated
May 31
Waxing Gibbous
Jun 4
Full
Jun 11
Last Quarter
Jun 19
New
Jun 26
First Quarter

Hourly Weather History & Observations

Time (MDT) Temp. Dew Point Humidity Pressure Visibility Wind Dir Wind Speed Gust Speed Precip Events Conditions
12:53 AM 70.0 °F 23.0 °F 17% 29.84 in 10.0 mi WNW 16.1 mph - N/A   Clear
1:53 AM 66.0 °F 23.0 °F 20% 29.84 in 10.0 mi WSW 5.8 mph - N/A   Clear
2:53 AM 63.0 °F 21.0 °F 20% 29.85 in 10.0 mi WNW 4.6 mph - N/A   Clear
3:53 AM 59.0 °F 19.9 °F 22% 29.86 in 10.0 mi Calm Calm - N/A   Clear
4:53 AM 55.9 °F 19.0 °F 24% 29.88 in 10.0 mi Calm Calm - N/A   Clear
5:53 AM 51.1 °F 19.0 °F 28% 29.90 in 10.0 mi Calm Calm - N/A   Clear
6:53 AM 55.0 °F 19.0 °F 24% 29.92 in 10.0 mi Calm Calm - N/A   Clear
7:53 AM 64.9 °F 23.0 °F 20% 29.92 in 10.0 mi Calm Calm - N/A   Clear
8:53 AM 73.9 °F 28.0 °F 18% 29.91 in 10.0 mi NE 11.5 mph - N/A   Clear
9:53 AM 77.0 °F 28.0 °F 17% 29.91 in 10.0 mi ENE 8.1 mph - N/A   Clear
10:53 AM 81.0 °F 27.0 °F 14% 29.90 in 10.0 mi East 12.7 mph 20.7 mph N/A   Clear
11:53 AM 82.0 °F 27.0 °F 13% 29.89 in 10.0 mi East 9.2 mph - N/A   Clear
12:53 PM 84.0 °F 27.0 °F 13% 29.87 in 10.0 mi NE 8.1 mph - N/A   Clear
1:53 PM 84.9 °F 25.0 °F 11% 29.85 in 10.0 mi Variable 5.8 mph - N/A   Clear
2:53 PM 87.1 °F 25.0 °F 10% 29.83 in 10.0 mi Variable 4.6 mph - N/A   Clear
3:53 PM 88.0 °F 24.1 °F 10% 29.81 in 10.0 mi NNW 9.2 mph - N/A   Clear
4:53 PM 87.1 °F 24.1 °F 10% 29.79 in 10.0 mi Variable 6.9 mph 18.4 mph N/A   Clear
5:53 PM 88.0 °F 25.0 °F 10% 29.79 in 10.0 mi NNW 3.5 mph - N/A   Clear
6:53 PM 88.0 °F 25.0 °F 10% 29.75 in 10.0 mi SW 3.5 mph - N/A   Clear
7:53 PM 87.1 °F 25.0 °F 10% 29.73 in 10.0 mi West 6.9 mph - N/A   Clear
8:53 PM 81.0 °F 24.1 °F 12% 29.72 in 10.0 mi WSW 3.5 mph - N/A   Clear
9:53 PM 80.1 °F 26.1 °F 14% 29.75 in 10.0 mi WNW 17.3 mph - N/A   Clear
10:53 PM 77.0 °F 27.0 °F 16% 29.77 in 10.0 mi West 12.7 mph - N/A   Clear
11:53 PM 75.9 °F 30.0 °F 19% 29.77 in 10.0 mi WNW 12.7 mph - N/A   Clear